Probability
29 52 97 94 100 97 97 97 97 97 97 97 97 97 100 100 100 100 100 100 100 100 97 97 97 97 97 100 100 100 100 100 100 97 97 94 97 94 97 94 87 84 97
32 58 97 94 100 100 97 97 97 97 97 97 100 100 100 100 100 100 100 100 100 100 100 97 94 94 97 97 97 97 100 100 100 97 90 87 90 97 97 84 90 94 100
61 71 84 97 100 100 100 100 100 100 100 100 100 100 100 100 100 100 100 100 100 100 100 97 97 100 100 100 97 100 100 97 94 97 94 68 84 90 87 90 100 97 97
77 74 77 97 100 100 100 100 100 100 100 100 100 100 100 100 100 100 100 100 100 100 100 100 100 100 100 100 100 100 100 97 97 87 58 35 55 87 94 90 94 94 94
87 87 97 97 100 100 100 100 100 100 100 100 100 100 100 100 97 97 97 97 97 97 94 94 97 97 97 100 100 97 94 94 90 74 32 32 68 90 94 90 90 87 94
81 77 84 94 97 97 100 100 100 100 100 100 100 97 97 97 97 97 94 97 97 97 97 97 97 97 97 94 94 94 94 90 81 26 19 32 48 94 90 90 97 90 94
74 74 77 97 100 100 100 94 94 94 94 97 97 97 97 97 97 97 97 94 97 97 94 97 97 97 94 94 90 90 87 87 61 23 19 23 58 90 87 90 87 84 84
68 68 81 97 94 97 97 97 97 97 97 94 94 94 94 97 94 94 97 97 97 94 94 97 97 94 90 90 94 94 90 87 48 32 39 45 90 97 94 97 100 94 87
68 74 74 71 90 94 94 94 90 94 94 94 90 90 90 90 87 90 90 90 90 90 94 94 94 94 97 97 90 90 94 81 68 58 48 65 84 87 94 100 100 94 84
71 81 68 77 74 81 87 90 90 87 87 87 87 87 87 84 87 87 87 87 90 90 90 87 87 87 84 87 84 81 84 77 48 45 55 68 84 87 97 97 94 87 74
74 74 71 74 81 81 74 87 87 87 84 84 84 81 84 84 81 84 81 84 84 84 87 87 87 87 84 81 77 84 84 55 35 42 58 77 84 87 94 97 97 84 77
71 71 77 81 84 84 77 90 87 87 87 87 87 87 87 87 81 74 74 74 74 77 81 77 74 68 71 71 71 71 55 42 32 32 52 74 71 81 81 90 87 84 81
68 71 68 77 77 77 77 74 81 84 84 74 77 84 87 84 74 71 74 71 71 71 71 71 68 61 68 68 74 58 48 35 35 32 42 77 71 74 77 84 84 81 81
55 58 65 68 77 71 68 68 74 71 74 74 74 68 71 65 74 71 71 65 68 71 71 74 71 45 48 35 48 42 35 48 48 45 68 77 77 81 74 71 74 65 77
48 45 52 52 55 65 71 65 65 68 65 65 65 68 65 58 58 58 61 65 58 58 48 55 45 42 45 26 29 23 29 42 42 29 39 71 74 74 68 68 52 52 58
42 39 39 39 45 55 55 68 65 61 61 58 58 55 55 48 55 48 48 55 45 45 52 52 42 42 39 35 32 26 29 35 39 45 42 58 68 65 61 65 61 55 55
42 45 42 42 48 48 48 52 48 55 58 55 52 55 55 48 52 48 39 39 39 42 48 48 39 35 39 29 26 32 29 35 29 45 45 48 52 39 48 52 52 52 48
45 42 39 29 42 48 39 42 48 45 45 42 42 39 35 29 32 39 32 35 39 35 35 29 29 29 29 35 32 29 29 39 35 32 35 32 39 29 39 39 35 39 35
32 35 35 35 32 42 39 45 42 39 26 23 26 26 29 29 32 39 42 42 39 32 26 23 26 32 26 35 26 42 29 26 29 10 19 19 19 32 32 32 26 26 32
23 19 26 26 29 35 32 29 35 32 29 26 26 26 29 29 26 26 23 29 26 29 35 39 35 35 32 32 16 13 26 23 23 29 16 13 26 26 26 26 32 29 16
19 19 29 26 29 32 23 19 23 26 26 26 26 23 23 23 23 23 26 26 23 26 26 32 32 29 32 23 23 26 23 23 26 42 26 19 16 19 23 29 29 35 26
16 19 19 19 19 23 26 26 23 19 19 16 16 16 16 19 23 23 26 23 23 23 23 16 23 26 23 23 23 26 16 16 29 10 10 19 13 16 19 10 23 23 16
16 16 16 19 19 23 26 23 23 19 16 19 19 19 16 16 16 23 26 23 26 23 16 16 16 16 23 16 23 23 13 3 10 6 10 6 6 13 13 19 13 16 16
13 19 19 16 16 23 23 16 16 19 23 19 16 16 13 10 13 16 19 16 19 23 16 16 10 10 10 13 13 16 16 13 3 0 0 0 0 6 3 3 6 13 13
16 13 13 13 13 13 16 16 19 16 16 16 16 16 13 10 10 10 10 16 16 19 19 10 10 10 10 13 13 10 6 16 3 3 0 3 0 0 0 6 10 13 10
13 13 13 10 10 10 10 10 13 13 16 16 13 16 10 10 13 10 10 13 13 13 6 6 6 6 6 6 6 6 10 6 3 3 3 6 6 3 3 3 3 3 3
Height
5915 5915 5915 5915 5915 5915 5915 5915 5915 5915 5915 5915 5914 5914 5914 5914 5914 5914 5914 5914 5914 5913 5913 5913 5913 5912 5912 5911 5911 5910 5910 5909 5908 5908 5908 5907 5907 5907 5906 5906 5906 5905 5905
5914 5914 5914 5914 5914 5914 5914 5914 5914 5914 5914 5914 5914 5913 5913 5913 5913 5913 5913 5913 5913 5913 5913 5913 5912 5912 5911 5911 5910 5910 5909 5909 5908 5908 5907 5907 5907 5906 5906 5906 5906 5905 5905
5913 5913 5913 5913 5913 5913 5913 5913 5913 5913 5913 5912 5912 5912 5912 5912 5912 5912 5912 5912 5912 5912 5912 5912 5911 5911 5910 5910 5910 5909 5908 5908 5908 5907 5907 5906 5906 5906 5906 5906 5905 5905 5905
5911 5911 5911 5911 5911 5911 5912 5912 5912 5911 5911 5911 5911 5911 5911 5911 5911 5911 5911 5911 5911 5911 5911 5910 5910 5910 5909 5909 5909 5908 5908 5907 5907 5906 5906 5905 5905 5905 5905 5905 5905 5905 5905
5909 5909 5909 5909 5909 5909 5909 5910 5910 5910 5910 5910 5910 5910 5910 5910 5910 5910 5910 5910 5910 5909 5909 5909 5909 5908 5908 5908 5907 5907 5906 5906 5905 5905 5905 5904 5904 5904 5904 5904 5904 5904 5904
5907 5907 5907 5907 5907 5907 5907 5907 5908 5908 5908 5908 5908 5908 5908 5908 5908 5908 5908 5908 5908 5908 5907 5907 5907 5906 5906 5906 5905 5905 5905 5905 5904 5904 5903 5903 5903 5903 5903 5903 5903 5903 5903
5905 5904 5904 5904 5904 5904 5904 5905 5905 5906 5906 5906 5906 5906 5906 5906 5906 5906 5906 5906 5906 5906 5905 5905 5905 5904 5904 5904 5903 5903 5903 5903 5902 5902 5902 5902 5901 5901 5901 5902 5902 5902 5902
5903 5902 5902 5901 5901 5901 5901 5902 5903 5903 5903 5904 5904 5904 5904 5904 5904 5904 5904 5904 5904 5903 5903 5903 5902 5902 5902 5901 5901 5901 5901 5900 5900 5900 5900 5900 5900 5900 5900 5900 5900 5900 5900
5900 5900 5899 5898 5898 5898 5898 5899 5899 5900 5900 5901 5901 5901 5901 5901 5901 5901 5901 5901 5901 5901 5900 5900 5899 5899 5899 5899 5898 5898 5898 5898 5898 5898 5897 5897 5897 5897 5897 5897 5898 5898 5898
5898 5897 5896 5896 5896 5896 5896 5896 5896 5897 5897 5897 5898 5898 5898 5898 5898 5898 5898 5898 5897 5897 5897 5897 5896 5896 5896 5895 5895 5895 5895 5894 5895 5895 5894 5895 5895 5895 5895 5895 5895 5895 5896
5894 5894 5893 5893 5893 5893 5893 5892 5893 5893 5894 5894 5894 5894 5894 5894 5894 5894 5894 5894 5893 5893 5893 5893 5893 5892 5892 5892 5891 5891 5891 5891 5891 5891 5891 5891 5891 5892 5892 5892 5892 5893 5893
5891 5890 5890 5890 5889 5889 5889 5889 5889 5890 5890 5890 5890 5890 5890 5890 5890 5890 5890 5889 5889 5889 5889 5889 5889 5888 5888 5887 5887 5887 5887 5887 5887 5887 5887 5888 5888 5888 5888 5888 5888 5889 5890
5888 5887 5886 5886 5886 5886 5886 5886 5886 5886 5886 5886 5886 5886 5886 5886 5886 5886 5886 5885 5885 5885 5884 5884 5884 5883 5883 5883 5883 5883 5882 5883 5883 5883 5883 5883 5883 5884 5884 5884 5885 5885 5886
5884 5883 5882 5883 5883 5882 5882 5882 5882 5882 5882 5882 5882 5882 5882 5882 5882 5881 5881 5881 5880 5880 5880 5879 5879 5879 5879 5878 5878 5878 5878 5878 5878 5878 5878 5879 5879 5879 5879 5880 5880 5880 5881
5881 5880 5879 5879 5879 5878 5878 5878 5878 5878 5878 5878 5878 5878 5878 5877 5877 5877 5876 5876 5875 5875 5875 5874 5874 5874 5873 5873 5873 5873 5873 5873 5873 5873 5873 5874 5874 5874 5875 5875 5875 5876 5876
5877 5876 5875 5874 5874 5874 5874 5874 5874 5874 5874 5874 5873 5873 5873 5873 5872 5872 5872 5871 5870 5870 5869 5869 5869 5868 5868 5868 5867 5867 5867 5867 5867 5868 5868 5868 5868 5869 5869 5870 5870 5871 5871
5873 5872 5871 5871 5870 5870 5870 5870 5869 5869 5869 5869 5869 5868 5868 5868 5867 5867 5866 5865 5865 5864 5864 5864 5863 5863 5863 5862 5862 5862 5862 5861 5861 5862 5862 5862 5863 5863 5864 5864 5865 5865 5866
5869 5869 5868 5867 5866 5866 5866 5866 5865 5865 5864 5864 5863 5863 5862 5862 5862 5861 5860 5860 5859 5858 5858 5858 5857 5857 5857 5856 5856 5856 5856 5855 5855 5855 5856 5856 5856 5857 5858 5858 5858 5859 5860
5865 5865 5864 5863 5863 5862 5862 5861 5860 5860 5860 5859 5858 5857 5857 5856 5856 5855 5854 5853 5853 5852 5851 5851 5851 5851 5850 5850 5850 5849 5849 5849 5849 5849 5849 5849 5850 5850 5851 5851 5852 5853 5854
5861 5861 5860 5859 5858 5857 5856 5855 5855 5855 5854 5853 5852 5851 5851 5850 5850 5849 5848 5847 5846 5846 5845 5845 5844 5844 5844 5843 5843 5843 5843 5842 5842 5842 5842 5843 5843 5844 5844 5845 5845 5846 5847
5858 5857 5856 5855 5854 5853 5852 5851 5850 5850 5849 5848 5847 5846 5845 5844 5843 5843 5842 5841 5840 5839 5838 5838 5837 5837 5837 5836 5836 5836 5836 5835 5835 5835 5835 5836 5836 5837 5837 5838 5838 5839 5840
5853 5852 5851 5850 5849 5848 5847 5846 5846 5845 5843 5842 5841 5840 5839 5838 5837 5836 5835 5835 5834 5833 5832 5831 5830 5830 5830 5829 5829 5829 5829 5829 5828 5828 5828 5828 5828 5829 5830 5831 5831 5832 5833
5849 5848 5846 5845 5844 5843 5842 5841 5839 5838 5837 5836 5835 5834 5833 5831 5831 5829 5828 5828 5826 5825 5825 5824 5823 5823 5822 5822 5822 5822 5821 5821 5820 5821 5820 5820 5821 5822 5822 5823 5824 5825 5826
5844 5843 5841 5840 5839 5837 5836 5835 5833 5832 5831 5830 5829 5828 5826 5825 5824 5822 5821 5820 5819 5818 5817 5816 5816 5815 5815 5814 5814 5814 5814 5813 5813 5813 5813 5813 5813 5814 5814 5815 5816 5817 5818
5840 5838 5837 5835 5833 5832 5830 5828 5827 5826 5825 5823 5822 5821 5819 5818 5816 5815 5814 5813 5812 5811 5810 5809 5808 5808 5807 5807 5806 5806 5806 5806 5806 5806 5806 5806 5806 5806 5807 5807 5808 5809 5810
5835 5833 5832 5830 5828 5826 5824 5822 5821 5819 5818 5816 5815 5814 5812 5811 5809 5808 5806 5805 5804 5803 5802 5801 5800 5800 5799 5799 5798 5798 5798 5798 5798 5798 5798 5798 5798 5798 5799 5800 5801 5802 5803
Wind_Speed
2 3 2 2 2 2 2 3 3 3 2 2 1 1 1 1 1 2 3 3 3 3 4 4 5 5 5 5 5 5 5 4 4 4 3 2 2 2 1 1 1 0 1
2 2 2 2 2 3 4 4 4 4 3 3 2 2 2 1 1 1 2 2 2 3 3 3 4 4 4 4 5 5 5 4 4 3 3 2 2 1 1 1 1 1 1
3 3 3 3 4 4 5 6 6 5 4 4 4 3 3 3 3 3 3 3 3 3 3 4 4 5 4 4 4 5 4 4 4 3 3 3 2 2 2 2 1 1 1
5 5 5 5 6 7 7 8 8 7 6 6 5 5 5 5 4 4 4 4 5 5 4 5 5 5 5 5 5 5 5 5 4 4 3 3 3 3 3 3 3 3 3
7 7 7 8 8 8 8 9 9 8 8 7 7 7 7 7 6 6 7 6 6 6 6 6 7 7 7 6 6 6 6 6 5 5 5 4 4 4 4 4 4 4 4
7 7 8 9 9 9 9 10 10 9 9 9 8 8 8 8 9 9 9 9 8 8 8 8 8 8 8 8 7 7 7 7 7 6 6 6 6 6 6 6 5 6 6
9 9 10 11 11 11 11 11 11 11 11 10 10 10 10 10 10 10 10 10 10 10 10 10 10 10 10 9 9 9 9 9 9 8 8 8 8 7 7 7 7 7 7
10 10 11 11 11 12 12 12 12 12 12 12 12 12 12 12 12 12 12 12 12 12 11 11 12 12 12 11 11 11 11 11 11 10 10 9 9 9 9 9 8 8 8
11 10 11 11 12 13 13 13 13 13 13 13 14 14 14 14 14 14 14 14 14 14 14 13 13 14 14 13 13 13 13 13 13 12 12 12 11 11 11 10 10 10 10
12 12 12 12 13 14 14 15 15 15 15 15 16 16 16 16 16 16 16 16 16 16 15 15 15 15 15 15 15 15 15 15 14 14 13 13 13 13 13 12 12 11 11
14 14 14 14 14 14 15 15 16 16 16 16 17 17 17 18 18 17 17 18 17 17 17 17 17 16 16 16 16 16 16 16 16 16 15 15 15 15 15 15 14 13 13
15 15 15 15 15 16 16 17 17 17 17 17 17 18 18 18 19 19 19 19 18 18 18 18 18 18 18 18 17 18 18 19 18 18 18 17 17 17 17 17 17 16 15
15 16 17 17 17 17 17 18 18 19 19 19 19 19 19 20 20 20 20 20 20 20 19 20 20 19 19 19 19 19 19 20 20 20 20 19 19 19 19 19 19 18 17
16 16 17 18 19 19 18 19 19 19 19 20 20 21 21 22 22 22 21 21 21 21 21 21 21 21 21 21 21 21 21 21 21 22 22 21 21 20 20 20 20 20 19
16 16 16 18 19 19 19 20 21 21 21 21 22 22 23 23 23 24 23 23 23 23 22 23 23 23 23 22 22 23 23 23 22 22 23 22 23 23 23 22 21 21 21
17 17 18 18 19 19 20 21 21 21 22 23 24 24 25 25 25 25 25 25 25 24 24 24 24 25 24 24 24 24 24 24 24 24 24 24 24 23 23 23 23 22 22
18 18 18 19 19 19 19 21 21 21 23 23 24 25 26 26 27 27 26 26 26 26 26 25 25 25 25 26 25 25 25 25 25 25 25 25 24 24 24 24 24 23 23
18 19 19 20 20 20 21 21 21 21 22 23 24 24 25 26 27 27 27 27 27 27 27 27 26 26 26 26 27 27 26 26 26 27 27 27 26 26 27 26 26 26 25
18 18 18 18 19 20 21 22 22 21 21 22 23 24 25 26 27 27 27 27 28 28 27 28 28 27 27 27 27 27 27 26 27 27 28 28 28 28 28 28 28 27 27
18 18 17 19 20 21 21 22 22 22 23 23 24 25 26 26 27 27 28 27 28 28 28 29 28 28 28 28 28 28 28 28 28 27 28 29 29 29 29 28 29 29 28
17 17 18 19 20 21 21 21 21 22 23 24 25 25 26 26 27 28 28 28 27 28 29 29 28 28 29 29 29 29 29 29 29 29 29 30 30 30 31 30 30 30 30
18 18 19 20 20 21 21 22 23 24 25 25 26 27 27 27 28 28 28 28 29 29 29 29 29 30 30 30 29 29 29 30 30 30 30 30 30 31 31 32 31 31 32
19 20 20 20 20 21 23 24 24 24 25 26 26 27 27 27 27 28 28 29 29 28 28 29 29 30 30 30 30 30 29 29 29 30 30 30 31 31 32 32 33 32 32
20 21 21 21 21 22 23 23 24 24 25 26 26 27 28 28 28 28 28 27 27 28 28 28 29 30 31 30 30 31 31 30 30 30 30 31 31 31 32 32 33 33 33
20 21 21 21 22 23 23 24 25 25 25 26 26 27 28 28 28 28 28 28 28 29 29 29 29 30 30 31 31 31 32 31 30 30 30 31 31 31 31 32 32 32 33
20 20 21 22 22 23 24 25 25 26 27 27 28 29 29 29 29 29 29 29 30 30 30 30 30 30 30 31 31 32 31 31 31 30 30 30 31 31 31 30 31 32 32
Wind_Direction
165 151 147 165 183 208 227 227 219 218 219 213 176 149 133 62 35 35 35 33 31 26 20 14 11 10 10 8 9 7 1 1 1 3 2 360 1 356 357 4 358 335 177
223 206 193 216 231 241 251 251 240 237 239 243 245 241 249 269 297 326 340 350 354 357 355 351 348 348 351 353 356 357 354 352 348 352 352 345 341 336 326 329 331 313 227
251 257 253 257 263 267 261 258 254 251 252 257 260 257 256 262 273 284 295 308 318 324 326 325 326 327 327 331 333 336 340 338 335 332 330 326 320 307 288 286 287 277 254
261 266 264 263 266 264 262 259 258 256 257 261 262 264 264 264 270 275 279 287 293 299 303 306 309 314 313 313 316 319 321 319 316 312 307 303 297 290 276 266 264 255 246
261 263 268 267 266 262 261 258 255 255 257 262 265 267 267 267 267 269 271 276 281 284 287 290 294 297 301 302 302 304 306 305 301 295 290 287 281 273 267 261 256 249 243
262 269 274 269 265 261 258 254 254 256 259 263 266 268 270 269 268 269 271 274 276 279 282 283 285 287 290 291 291 291 292 295 293 287 280 276 271 264 260 255 249 245 241
277 280 271 266 261 260 255 252 254 259 261 263 265 267 269 269 270 270 271 273 274 275 278 279 279 282 282 281 281 283 282 283 282 280 274 269 267 262 257 253 251 246 238
280 278 271 265 259 259 255 253 255 260 261 263 264 264 265 267 269 270 272 273 273 273 275 275 276 276 276 275 276 277 276 275 274 273 269 265 263 262 258 253 252 250 240
275 278 273 263 258 255 251 249 253 258 260 262 263 264 265 267 269 271 272 273 274 274 275 275 276 274 272 272 274 274 272 268 267 267 265 262 259 258 258 255 250 248 240
274 273 273 267 261 257 255 257 259 261 262 261 261 262 264 266 268 271 272 273 274 275 275 275 275 275 273 273 273 272 270 267 264 263 264 263 259 257 257 256 251 248 242
273 268 266 266 262 257 256 257 257 259 260 261 261 262 263 266 268 269 271 273 274 275 276 275 274 275 275 273 273 272 271 270 265 262 261 261 260 258 256 254 252 250 245
273 268 265 267 262 256 253 255 255 256 260 262 263 264 265 266 268 269 271 272 274 277 277 275 275 274 274 273 272 272 271 269 267 263 262 261 261 259 257 254 253 252 247
273 272 266 263 261 259 257 257 257 258 262 263 265 266 266 266 269 270 271 272 274 275 276 276 275 274 274 272 272 272 272 269 266 265 263 262 263 261 258 257 256 254 249
270 266 264 263 260 258 259 257 256 259 264 266 268 268 267 267 269 271 272 272 272 272 273 275 275 273 272 271 272 271 272 269 265 264 264 262 263 264 261 259 257 253 249
272 267 265 266 264 261 260 259 259 262 264 267 269 269 268 268 270 272 273 272 271 270 272 273 274 274 272 272 272 270 271 270 266 264 265 263 262 263 262 261 258 254 252
272 271 269 266 264 260 260 260 261 263 265 267 269 268 268 269 270 270 270 271 271 272 274 275 276 276 273 273 272 271 272 269 267 265 264 265 266 264 262 260 259 257 254
272 269 269 266 263 259 260 262 263 265 266 268 267 268 269 270 272 272 272 271 272 273 273 275 276 275 274 273 273 274 271 269 267 265 263 264 266 266 262 259 258 257 256
273 271 270 268 268 265 264 263 264 265 267 268 269 269 270 271 272 272 273 273 274 274 273 274 274 272 273 273 273 273 272 270 267 265 264 263 264 265 262 258 256 255 255
275 275 274 271 270 270 268 268 266 265 268 270 270 270 271 272 272 272 273 274 275 275 274 273 272 272 272 272 273 273 271 271 270 267 264 263 263 263 261 257 255 254 254
276 277 275 271 271 271 271 268 267 266 268 270 271 270 270 272 272 272 272 273 275 275 274 273 272 272 272 273 273 271 270 271 270 268 266 264 262 262 260 258 258 256 254
277 279 279 275 273 274 272 270 270 270 271 272 272 273 272 271 271 272 272 273 274 274 274 274 273 272 272 272 272 270 270 270 269 269 267 265 262 261 261 260 258 256 255
280 283 282 279 280 275 272 273 271 270 271 272 273 273 273 273 271 271 272 272 273 274 275 274 273 271 271 271 270 269 269 269 269 269 267 265 262 261 260 260 259 257 256
285 288 287 283 284 280 276 273 272 272 273 273 273 273 273 273 271 270 272 274 273 273 274 274 273 271 270 270 269 269 269 270 270 268 267 265 262 261 259 258 258 257 255
283 286 286 284 284 282 280 278 276 275 275 274 274 274 275 275 274 273 273 274 274 274 275 274 273 271 271 269 269 269 269 270 269 267 265 265 263 261 259 257 256 256 255
284 285 285 285 285 284 283 281 279 277 276 275 275 276 277 277 276 276 276 276 276 276 276 276 275 272 270 269 270 269 268 267 266 265 263 263 263 261 260 257 256 255 255
284 286 287 287 287 285 284 283 280 279 277 277 278 278 279 278 277 277 277 277 277 277 275 275 274 272 271 270 270 269 268 266 265 264 262 262 262 262 260 257 255 255 256